Wind_Speed
13 13 12 10 12 13 13 15 16 17 16 17 18 18 17 15 15 13 12 14 14 14 13 12 9 9 11 13 13 11 12 11 8 9 13 16 18 16 13 13 15 18 19 21 22 23 24 25 25 25 23 19 16 14 14 15 15 15 13 10 11 17 19 20 20 20 21 22 24 23 22 22 23 23 24 26 27 27 26 26 27 26 28 29 28
10 10 10 9 9 11 12 14 15 16 16 16 18 18 17 17 18 16 14 14 14 15 15 13 10 9 9 14 13 11 13 11 8 9 13 17 18 15 12 13 16 18 20 22 23 23 23 22 22 20 18 14 12 12 14 15 15 13 12 12 14 18 21 23 23 22 21 21 22 22 24 26 25 24 23 23 23 24 25 26 27 27 28 28 27
10 9 9 8 7 10 12 13 15 16 16 16 17 18 18 17 17 17 16 16 16 16 16 15 13 12 9 13 14 12 12 12 10 11 14 18 17 12 10 13 17 19 21 22 22 21 19 18 17 16 14 12 11 13 15 15 13 11 12 15 17 19 22 25 25 23 20 20 21 22 26 27 27 27 26 24 23 24 25 26 27 27 27 26 25
10 10 9 8 8 9 10 11 13 16 17 16 17 18 18 18 17 16 17 17 17 18 17 16 15 14 10 12 16 14 11 11 13 15 18 16 11 8 11 15 18 20 22 22 21 19 16 14 14 15 14 12 12 13 16 15 12 13 16 18 20 21 23 27 27 24 21 22 23 23 24 26 27 27 26 25 25 26 26 27 26 26 25 25 25
7 8 8 8 8 9 10 11 13 16 18 18 18 18 19 19 17 17 18 18 19 18 18 18 17 15 11 12 16 14 10 12 16 16 13 9 8 11 15 16 18 20 21 21 19 17 15 14 15 17 16 14 13 13 16 16 14 16 19 21 23 23 26 30 29 25 23 24 27 26 25 25 27 25 24 24 25 26 26 26 25 26 26 26 26
5 6 7 8 9 9 10 11 13 17 19 20 19 19 19 19 19 18 19 19 20 19 18 19 18 16 13 14 15 12 10 14 16 14 11 11 13 15 16 15 17 18 19 18 17 17 15 14 15 16 16 16 16 15 16 17 18 21 22 23 24 25 30 34 33 32 30 28 28 28 26 25 24 21 21 22 24 24 24 24 25 26 27 27 26
5 6 7 9 9 10 11 11 13 16 18 19 19 19 19 19 19 19 19 19 19 19 19 19 18 17 17 17 14 10 10 15 16 15 18 18 16 17 16 16 15 16 16 16 16 16 15 14 14 14 14 15 16 16 16 17 21 25 25 25 26 28 34 35 35 38 38 34 28 25 24 22 20 20 22 24 24 23 23 23 24 25 25 25 25
6 6 7 8 8 9 9 10 11 13 15 16 17 18 19 20 20 20 19 19 19 19 19 18 18 19 19 17 14 13 13 15 18 20 21 18 16 16 16 15 14 14 15 16 15 16 16 14 14 15 15 16 17 17 18 19 22 25 26 26 29 33 36 36 38 41 40 34 27 23 22 22 22 24 25 24 23 22 22 23 23 23 23 23 24
7 7 7 8 8 9 9 10 12 13 14 14 15 16 17 18 19 19 19 19 18 18 18 18 18 18 17 16 16 17 17 17 18 18 17 15 14 14 13 13 11 12 14 15 16 17 18 16 15 16 16 17 19 20 21 22 24 27 28 30 32 35 36 38 41 42 38 31 25 24 25 25 26 28 27 24 22 22 22 22 21 22 22 23 24
7 7 7 8 9 9 10 11 12 13 15 15 15 15 15 16 17 18 18 18 18 18 17 16 18 18 16 16 17 18 16 15 15 15 13 11 11 11 12 11 11 12 14 16 18 20 21 19 17 17 18 19 20 21 22 24 28 30 32 33 34 35 38 41 43 40 34 27 25 26 27 27 28 28 25 21 19 19 19 19 20 21 22 23 24
7 8 8 8 8 9 9 10 10 10 11 13 14 15 15 15 16 17 16 17 18 19 19 16 16 18 17 17 20 21 18 16 14 12 10 8 9 10 11 13 14 14 15 17 19 21 22 23 22 22 24 23 21 22 24 26 29 30 31 32 34 38 41 42 39 34 28 24 25 26 26 26 25 23 20 18 17 17 17 17 18 19 20 21 20
10 10 10 10 10 10 9 9 9 9 9 10 11 12 13 14 15 16 15 16 19 20 22 21 21 22 22 21 22 24 24 21 15 10 8 9 11 12 13 14 14 14 16 19 20 21 23 24 26 26 24 23 23 24 25 28 29 29 29 32 36 39 38 36 32 27 23 23 23 22 22 21 19 18 17 16 15 15 15 16 17 18 18 18 17
12 12 12 12 11 11 11 11 11 11 11 11 10 9 10 11 13 14 15 17 19 21 23 25 26 25 26 25 23 22 22 20 14 9 10 12 13 14 15 14 13 16 20 21 21 23 24 25 27 26 22 20 22 24 26 29 29 30 32 35 37 34 29 25 21 18 18 18 18 17 16 15 15 15 15 14 14 14 14 15 15 16 16 15 15
13 14 14 13 13 13 12 12 13 12 12 12 11 9 9 9 10 11 13 15 18 20 23 25 26 24 24 24 23 20 17 14 11 10 12 13 12 14 16 16 16 19 22 23 23 25 26 26 27 25 22 21 23 25 28 29 30 32 34 34 31 25 19 15 12 12 13 13 13 14 13 13 13 13 13 13 13 13 13 14 14 14 14 14 14
11 12 13 13 14 14 13 13 13 13 13 12 12 11 10 9 9 9 10 11 14 17 19 21 21 20 20 20 20 17 13 11 11 13 14 13 13 15 17 19 20 22 23 24 24 26 28 27 25 24 24 24 24 26 28 29 31 32 31 28 24 18 12 10 10 11 11 11 11 12 12 12 12 12 12 12 12 12 13 13 13 13 13 13 13
9 9 9 11 12 14 14 13 12 13 13 13 13 12 12 11 11 10 10 10 11 12 12 14 14 14 15 15 15 13 12 12 14 15 16 17 18 19 19 22 23 24 24 25 26 27 28 26 24 23 24 26 28 30 33 33 31 28 25 22 17 11 9 9 9 9 9 10 10 11 11 10 10 11 11 11 12 12 12 12 12 12 13 13 13
8 7 7 8 10 11 12 11 10 11 12 13 14 14 13 13 12 11 10 11 11 10 10 10 8 7 8 9 10 11 13 15 17 18 19 20 21 22 23 24 25 25 24 26 29 28 26 24 25 25 27 29 33 36 36 32 28 24 20 15 10 7 7 8 8 8 9 9 9 10 10 10 10 10 11 11 11 11 11 12 12 13 14 14 13
8 7 7 7 8 9 10 10 11 11 12 13 14 14 13 12 11 11 11 11 11 11 11 9 8 7 8 9 11 13 15 18 20 21 22 22 23 25 27 26 25 24 24 25 28 27 23 22 22 25 27 29 29 29 27 24 21 16 11 7 6 7 8 8 9 9 9 10 11 11 11 11 11 11 10 10 11 11 12 12 14 15 14 13 12
7 6 6 7 8 9 9 9 9 11 13 13 11 10 10 11 11 11 11 12 12 12 11 9 9 10 11 13 14 15 17 18 20 22 23 23 25 28 28 26 24 22 22 22 23 22 20 19 19 21 23 23 22 20 18 16 12 7 4 5 6 8 9 10 11 11 12 13 14 14 13 12 11 11 10 11 12 12 14 15 16 15 13 11 10
8 7 7 7 8 8 8 6 6 9 12 11 8 7 8 10 11 10 10 13 12 11 9 9 11 13 15 17 17 18 18 19 20 22 24 25 28 30 27 24 21 20 20 20 19 18 16 16 16 17 16 16 15 13 11 8 5 3 5 6 7 10 11 11 13 13 13 14 15 16 14 12 12 11 11 12 13 15 16 16 14 12 10 9 8
11 10 10 9 8 8 8 6 6 7 7 8 7 7 9 9 8 7 9 10 9 9 8 10 12 12 14 16 17 17 16 16 17 19 22 24 26 25 22 20 20 19 18 18 16 14 12 11 10 9 9 8 8 6 4 3 3 5 7 8 9 11 12 12 13 13 13 13 15 15 14 13 12 11 12 13 15 16 15 13 11 9 8 7 7
12 12 12 11 10 8 8 7 8 8 5 6 7 6 6 5 6 7 9 8 7 8 9 12 14 14 14 14 16 17 15 13 13 16 17 17 17 17 17 17 17 16 14 12 10 8 6 4 3 3 3 3 3 3 3 4 5 6 9 12 11 12 14 13 13 12 12 13 13 12 12 12 11 10 12 13 13 13 11 9 8 8 8 8 8
12 12 12 11 11 10 8 8 8 8 7 7 7 6 4 3 4 6 7 8 10 12 13 15 17 17 16 12 12 14 16 16 17 17 18 17 16 15 14 12 11 9 8 7 6 3 2 3 4 4 4 4 5 5 6 6 7 8 11 13 12 13 14 13 13 13 12 11 8 6 7 7 7 8 8 8 8 7 6 7 8 9 9 9 10
11 11 11 12 11 10 8 7 7 7 7 7 7 7 5 4 6 5 5 6 8 11 12 12 11 11 9 8 8 10 11 13 14 14 15 15 13 11 8 7 6 6 5 4 3 3 4 5 5 5 6 7 7 7 7 8 9 10 13 14 14 15 14 13 13 13 10 6 5 7 6 6 6 7 7 8 9 10 11 12 12 12 13 13 13
11 11 11 11 11 10 8 6 5 5 5 5 5 5 6 6 6 7 7 5 5 7 6 5 5 5 5 6 8 9 10 11 11 12 13 11 8 6 5 5 5 5 5 5 4 5 5 5 5 6 8 9 8 7 8 10 11 12 13 14 15 14 13 13 11 7 5 9 13 14 13 13 14 15 17 18 20 20 20 19 19 18 17 16 15
12 11 10 10 10 9 8 6 5 4 4 4 3 3 4 5 6 7 7 6 4 4 4 4 4 4 4 5 6 7 8 8 8 8 8 6 4 5 5 5 5 6 7 6 5 6 6 6 6 7 8 9 9 8 9 10 11 12 13 13 13 12 11 10 10 12 16 20 22 21 21 21 22 23 25 26 28 28 27 26 25 24 22 19 17
12 11 10 10 9 8 8 7 5 3 2 2 2 3 3 4 5 5 5 5 5 4 4 4 4 5 4 5 5 6 6 5 5 4 3 4 5 5 6 6 5 6 7 6 6 7 7 7 7 7 9 10 9 9 9 10 12 12 13 12 13 13 15 17 20 23 26 27 27 27 27 27 28 29 30 30 31 31 30 29 27 25 23 21 18
12 11 10 10 10 10 9 8 6 4 3 2 2 3 4 4 4 4 4 5 5 5 4 4 4 4 4 5 5 5 5 5 5 5 5 5 5 5 6 5 5 7 8 8 6 7 8 8 7 7 9 9 9 8 9 11 13 13 14 16 18 20 22 24 25 27 28 29 29 29 29 30 30 31 31 31 31 31 30 29 27 26 24 22 20
14 13 12 12 12 11 10 9 8 7 6 5 4 4 5 4 4 4 5 5 5 5 4 4 4 5 6 7 7 7 7 7 7 6 6 5 5 5 5 5 6 7 8 7 6 7 9 8 7 8 8 8 8 9 12 14 15 16 18 19 21 23 24 25 27 28 29 29 30 30 31 32 32 32 32 32 31 31 30 29 28 27 26 25 24
16 15 14 13 13 12 11 10 10 9 9 8 7 6 5 5 4 5 6 6 5 5 5 5 6 8 9 10 9 8 8 8 7 6 5 4 4 4 5 5 6 7 8 7 6 8 8 7 7 8 9 10 11 14 17 19 19 20 20 21 23 25 26 27 29 30 31 31 32 32 33 33 33 33 32 32 32 32 31 31 30 30 29 29 28
17 16 14 14 14 13 12 11 11 11 11 10 9 8 7 6 5 6 6 6 5 6 7 9 10 11 11 10 9 6 6 7 6 5 4 3 3 4 6 5 5 7 7 6 7 9 9 9 11 12 14 16 17 19 22 22 22 23 24 25 26 27 29 30 31 32 33 33 34 34 35 35 35 35 35 35 35 35 35 35 34 34 33 33 32
18 17 15 14 14 14 13 12 12 12 11 10 10 9 7 6 6 7 7 7 8 9 10 11 11 11 11 9 7 5 5 6 5 4 4 3 3 4 6 5 5 6 6 6 8 11 12 13 16 18 20 22 23 23 25 26 27 27 28 29 30 31 32 34 35 36 37 38 38 39 39 39 39 39 39 39 39 39 39 38 38 38 37 37 36
20 17 16 15 15 15 14 13 12 12 11 11 10 9 8 8 9 10 11 11 12 12 12 12 12 11 9 7 5 4 6 6 5 4 4 4 4 5 5 5 5 6 7 8 10 13 16 19 21 24 26 28 28 28 29 30 31 31 32 33 35 36 38 39 40 41 42 42 43 43 43 43 43 43 43 42 42 41 41 40 40 39 39 39 38
21 18 17 16 15 15 14 13 12 12 11 11 11 11 12 12 14 15 15 15 15 15 14 13 11 10 7 5 4 5 6 6 5 5 5 5 4 4 5 5 8 10 11 12 14 18 22 25 28 30 32 33 34 33 34 34 35 36 37 38 40 41 42 42 43 44 44 44 45 45 45 45 45 44 44 43 43 42 41 41 40 40 40 39 39
21 19 18 16 15 15 14 14 13 12 12 12 13 14 15 16 17 17 17 17 17 15 14 12 10 9 7 5 5 5 5 5 5 5 5 4 3 4 7 9 12 14 16 18 21 25 29 32 34 36 37 38 38 38 38 38 39 39 40 41 42 43 43 43 44 44 44 44 44 44 44 44 44 43 43 42 42 41 41 41 41 41 40 40 40
22 20 18 17 15 15 14 14 13 13 13 14 15 16 16 17 18 17 17 17 16 14 12 11 10 8 7 6 6 6 5 5 5 4 4 5 7 9 12 13 16 18 20 23 26 31 35 37 38 40 41 41 41 42 41 41 40 41 41 41 41 42 42 42 42 42 42 42 42 42 42 42 42 42 41 41 41 40 40 40 40 40 39 39 39
22 20 18 17 15 14 14 14 14 13 14 14 15 15 16 16 17 17 16 15 14 13 12 11 10 9 8 7 7 7 6 6 4 4 7 9 10 14 16 17 19 22 23 26 30 35 37 39 41 42 42 41 41 41 40 40 39 39 39 39 39 39 39 39 40 40 40 41 41 40 40 40 40 40 40 39 39 39 39 39 38 38 38 38 38
22 20 19 17 16 14 14 14 13 13 14 14 14 15 15 15 15 15 15 14 13 13 12 11 10 9 8 8 7 8 8 7 7 9 11 12 15 18 21 23 25 27 28 30 34 37 38 39 41 42 40 39 38 38 38 38 38 38 38 38 38 38 38 39 40 40 40 40 40 40 40 39 39 39 38 38 37 37 37 37 37 36 36 36 37
22 20 19 18 16 14 14 14 13 12 13 12 13 13 13 13 13 14 14 14 13 13 12 12 12 12 11 10 10 10 10 10 11 14 15 17 20 22 25 28 30 31 32 34 37 38 38 40 41 40 38 36 36 37 37 37 37 37 38 39 38 38 39 39 40 40 40 40 40 39 39 39 39 38 38 37 37 36 36 35 35 34 34 35 36
22 20 19 18 17 15 14 14 13 12 12 12 12 12 13 13 13 14 14 14 13 13 13 13 14 14 14 13 13 13 13 14 16 18 20 22 23 24 26 28 29 31 33 35 36 38 39 40 40 39 37 36 37 38 38 38 38 38 38 38 39 39 39 39 39 39 39 40 39 39 39 39 38 37 37 36 36 35 34 33 33 32 32 33 34
22 20 19 18 17 17 15 15 14 13 12 11 12 12 13 14 14 14 14 14 13 13 14 15 16 16 16 16 16 15 16 18 19 21 23 25 25 24 25 27 27 28 31 34 35 37 39 41 40 39 39 38 38 38 39 39 39 38 38 37 37 38 38 38 38 39 39 39 38 38 38 37 36 36 35 35 35 34 33 32 31 30 31 32 32
22 20 19 18 18 17 17 16 14 13 12 12 13 13 13 14 15 15 14 14 13 13 15 17 18 19 19 20 21 20 20 21 22 24 26 27 27 26 27 28 28 29 32 34 37 39 41 41 41 40 40 39 38 39 39 39 39 38 38 37 36 36 36 36 37 37 38 38 37 37 37 36 36 35 35 34 34 33 32 31 31 30 31 31 31
22 20 18 17 17 17 17 16 15 14 13 13 14 14 14 15 15 15 15 15 15 15 17 18 20 21 22 24 25 26 25 24 25 26 27 28 28 28 29 30 31 32 34 37 41 42 42 42 41 40 39 38 39 38 38 39 39 39 39 38 37 36 36 35 35 36 36 37 36 36 36 36 36 36 35 34 33 32 32 31 31 31 31 31 31
22 20 18 17 17 17 16 15 14 14 13 14 15 16 15 15 15 15 15 16 17 18 19 19 20 21 22 25 27 28 28 28 29 29 29 29 30 31 32 32 34 36 38 42 44 42 41 41 40 39 38 38 38 37 38 39 38 38 38 38 38 37 36 36 36 36 36 36 36 35 35 36 36 36 35 34 33 32 32 31 31 31 32 32 32
21 19 17 16 15 16 16 15 14 14 14 14 16 17 17 16 16 16 17 17 17 19 20 21 21 23 25 26 27 28 29 30 31 31 31 32 33 34 36 38 39 41 42 43 41 39 39 38 38 38 37 36 35 35 35 36 35 35 35 35 36 36 37 37 37 37 36 35 35 35 35 35 35 35 34 33 33 32 31 31 30 31 32 32 33
20 19 17 15 14 14 15 15 15 15 15 15 16 17 18 18 18 18 18 19 19 19 19 20 22 25 27 26 27 29 31 31 32 33 33 34 35 38 41 43 44 44 42 39 37 37 36 36 36 36 35 33 32 32 32 32 32 32 31 32 32 34 35 36 37 37 36 35 34 34 34 34 34 34 34 33 32 32 31 30 30 31 31 31 32
19 19 17 15 13 13 13 15 15 16 16 16 16 17 18 20 21 21 21 21 22 21 21 22 24 25 25 26 28 30 32 33 34 35 37 38 40 43 43 43 42 40 38 36 36 36 36 35 35 34 32 32 32 32 31 31 31 31 30 30 31 32 33 34 34 34 34 34 33 34 34 34 34 34 34 33 32 31 31 30 30 30 31 32 33
18 18 17 15 13 12 12 13 14 15 16 16 16 16 17 20 22 23 23 23 24 24 25 25 26 25 25 27 29 31 32 34 36 38 40 41 41 40 40 39 38 37 37 37 37 36 35 35 33 32 32 33 33 33 33 32 32 32 31 31 31 32 32 33 32 32 32 32 31 32 32 33 33 33 33 32 31 31 31 30 31 31 31 32 33
16 17 17 16 13 11 11 12 13 14 15 16 17 18 19 20 21 21 22 23 24 25 27 27 26 26 27 29 31 31 32 34 35 37 37 38 38 39 40 39 39 39 39 38 37 37 36 35 35 35 35 35 35 35 34 34 33 32 32 31 31 30 30 30 29 30 30 30 30 30 30 31 32 32 32 31 30 31 31 31 31 31 32 33 33
14 15 16 16 14 12 11 11 12 12 13 15 17 20 22 22 22 22 22 23 25 26 27 27 26 27 28 30 31 31 31 32 33 34 34 34 35 37 37 37 38 39 38 37 37 37 37 36 36 36 36 36 35 35 34 34 33 32 31 31 30 30 29 28 28 28 27 28 29 29 29 30 30 30 30 29 30 30 31 32 32 32 32 32 33
12 13 15 16 15 13 11 11 11 12 13 15 17 20 22 22 23 24 25 25 26 27 27 26 26 27 28 29 30 29 30 30 32 33 33 33 33 34 33 34 36 37 36 37 38 37 36 36 36 35 35 34 34 33 32 32 32 32 31 31 31 30 29 29 29 29 28 28 29 29 29 28 28 28 28 28 29 30 30 31 32 32 32 31 30
Wind_Direction
223 224 231 238 238 233 228 230 231 235 235 235 237 239 243 233 231 244 247 240 240 244 248 252 261 286 297 297 290 280 279 279 278 289 294 293 293 290 289 290 291 291 293 296 298 299 298 298 298 298 294 290 290 289 288 286 286 286 285 278 293 318 331 336 333 328 323 313 303 298 297 300 304 303 299 294 289 288 286 288 294 298 300 298 296
223 226 234 245 245 234 227 228 231 234 234 235 238 242 244 241 240 250 258 258 257 258 259 258 264 274 296 305 294 281 287 299 305 299 290 286 284 283 291 296 295 296 296 295 295 296 297 300 301 298 293 291 293 294 294 291 288 281 269 262 283 310 324 330 332 328 321 311 302 297 298 304 305 302 302 300 293 288 286 289 294 298 298 295 293
220 224 230 240 241 230 228 232 235 234 235 237 239 243 245 246 249 255 258 262 265 268 269 263 264 268 288 309 296 285 292 308 313 303 289 280 276 277 294 300 299 297 296 294 294 296 298 302 299 295 293 296 299 300 303 297 283 269 260 259 275 297 312 323 328 327 319 307 298 296 298 300 302 302 303 303 298 294 293 295 298 298 295 292 292
218 222 225 230 229 227 231 237 238 234 237 242 242 244 246 249 252 253 254 259 266 270 273 264 264 275 294 309 297 289 297 314 313 296 281 272 271 284 304 305 300 296 294 293 294 296 299 301 297 293 294 295 295 302 308 297 269 260 261 261 273 289 305 317 322 323 318 310 301 294 293 292 294 298 300 300 300 298 298 299 298 296 293 293 297
222 225 224 225 225 230 237 245 246 240 241 245 246 246 247 250 251 251 252 258 264 266 269 267 272 282 294 303 295 288 304 320 305 288 275 271 287 303 309 304 297 293 292 293 295 297 299 303 301 295 291 287 285 296 304 294 269 266 267 267 272 281 299 311 314 316 312 308 306 298 290 285 286 289 293 295 296 296 297 297 295 292 292 297 302
236 242 240 239 241 246 250 254 254 248 245 246 246 246 247 250 253 254 256 259 261 260 262 269 277 281 288 297 291 283 302 307 289 283 297 306 306 308 308 301 295 292 292 294 297 299 301 302 304 301 291 284 285 292 294 290 282 276 272 268 270 280 295 301 306 314 311 306 304 298 289 282 281 283 288 291 292 292 293 294 292 291 294 299 302
249 255 257 255 258 259 260 262 260 254 249 247 247 247 249 252 254 256 258 260 257 253 257 267 275 278 285 292 284 272 290 291 275 278 301 312 311 308 303 298 293 288 289 294 299 304 306 303 302 303 297 291 292 292 283 284 288 280 273 269 274 285 293 299 307 314 313 309 301 292 286 280 280 285 291 293 291 290 291 292 291 291 295 299 302
264 271 269 265 265 264 265 266 264 259 254 255 256 255 255 254 255 254 256 258 253 249 256 266 274 279 284 286 283 280 283 274 264 271 291 308 308 302 297 292 285 280 284 290 299 306 309 307 300 297 298 297 296 293 285 283 283 280 277 276 282 289 295 304 311 311 309 307 296 286 282 281 286 293 299 297 292 290 289 290 291 293 298 302 304
267 274 275 273 271 268 268 267 265 264 264 266 267 264 260 257 255 253 254 254 249 249 257 265 272 282 289 288 285 280 273 263 264 276 292 301 297 296 296 290 279 276 284 289 298 303 306 307 303 299 297 299 299 297 292 287 281 277 278 282 289 293 299 305 307 306 305 301 292 286 285 288 294 301 305 301 293 290 291 293 296 300 304 306 306
270 272 273 273 272 271 269 269 269 269 270 270 267 265 263 259 256 254 254 251 248 251 256 265 277 288 292 282 273 267 265 271 283 292 294 290 290 295 294 288 278 281 291 296 300 302 301 300 298 297 296 298 298 294 296 294 284 277 278 286 292 296 301 303 302 302 302 299 294 292 293 296 301 305 307 304 300 298 299 303 305 306 307 306 306
281 278 275 274 272 270 269 268 271 276 279 277 268 263 263 260 257 256 256 252 250 255 254 257 269 275 272 263 263 269 278 294 298 293 289 285 290 295 294 288 281 285 296 301 302 302 300 295 292 290 290 294 295 296 299 292 283 280 284 290 294 299 302 301 299 299 300 299 296 296 299 302 305 308 307 308 308 306 306 307 307 307 306 305 306
286 284 280 276 274 271 270 269 272 280 288 289 279 267 261 260 260 259 258 255 256 259 254 252 260 265 266 264 266 272 281 295 297 291 295 293 293 297 302 299 286 282 291 298 298 299 297 293 290 289 291 296 299 299 291 282 284 289 290 292 296 301 301 299 298 298 298 298 299 302 306 309 310 310 309 310 311 308 307 307 306 305 305 305 307
281 279 278 276 275 275 276 276 278 282 284 287 286 277 268 264 264 264 262 260 260 263 259 259 267 271 272 274 274 274 278 286 286 285 303 300 297 299 304 305 289 278 287 296 298 298 299 297 296 296 296 295 290 284 278 277 285 290 290 293 299 301 301 300 304 306 306 306 310 314 315 315 313 312 312 313 313 312 311 311 311 311 311 312 312
280 275 273 274 274 277 279 280 280 281 280 278 276 277 276 270 268 267 265 264 263 264 263 266 271 274 274 274 275 277 276 273 265 274 296 297 294 299 303 302 292 286 290 298 302 303 304 305 303 300 297 290 279 270 268 273 281 287 292 297 300 301 302 310 323 328 325 322 322 320 316 315 313 315 316 316 317 319 321 322 323 322 321 320 320
285 279 273 271 273 276 278 281 281 280 278 272 269 270 272 271 270 269 268 270 267 264 266 270 275 275 271 269 271 275 274 268 267 277 288 290 292 299 303 302 299 295 294 296 299 302 305 303 299 297 293 283 270 264 266 274 284 292 296 298 298 299 309 328 338 335 330 323 320 316 313 313 314 317 320 324 326 328 330 331 329 327 325 323 322
298 290 281 276 275 276 278 280 281 282 280 273 269 272 275 273 271 271 273 276 278 277 280 281 280 275 267 268 270 273 277 281 282 284 289 293 295 298 299 298 300 299 296 294 294 297 301 298 290 287 282 269 262 268 278 287 294 296 297 295 295 304 328 340 338 335 327 320 318 314 311 314 318 322 326 330 330 332 331 329 326 322 321 319 318
314 303 291 284 278 275 274 275 279 282 279 275 273 273 277 277 276 275 274 277 279 282 285 287 284 275 268 269 270 274 281 285 285 288 293 294 295 296 295 296 299 302 299 294 291 293 296 294 286 279 273 266 265 273 282 289 292 293 292 291 302 330 345 342 338 335 326 321 319 313 313 320 323 325 327 328 327 326 322 319 316 315 314 313 313
324 307 290 278 272 270 271 273 274 276 272 274 272 269 274 278 279 279 279 280 281 283 282 279 272 265 269 272 273 278 284 286 288 292 293 294 294 293 293 294 297 302 305 299 293 290 291 294 289 281 275 272 272 277 283 287 287 286 287 302 337 351 346 341 336 330 324 322 319 312 314 320 321 321 321 320 317 313 310 308 309 309 309 310 311
328 309 290 276 273 271 275 270 262 264 264 267 269 271 281 283 281 283 286 284 284 287 286 282 274 273 281 285 286 288 292 294 295 293 291 293 292 290 291 292 294 301 305 302 295 290 289 290 286 280 277 277 281 285 286 285 282 283 310 348 356 350 346 343 335 330 326 325 321 314 312 314 314 313 312 310 308 305 303 303 306 307 309 313 315
337 323 309 299 291 284 284 271 256 263 256 251 260 272 281 281 280 288 297 291 281 279 286 297 296 291 290 287 288 291 293 295 294 289 286 287 286 285 287 290 296 302 302 299 295 291 286 280 276 275 275 279 283 283 281 279 282 327 5 5 355 353 352 346 339 332 330 331 327 318 312 309 307 306 306 305 303 302 303 305 308 311 318 325 334
339 333 325 319 310 296 295 287 279 283 251 233 245 253 263 271 274 289 308 302 281 274 283 294 295 292 289 283 285 290 292 292 289 284 281 279 279 280 284 292 300 302 300 296 291 285 277 271 271 273 277 280 282 281 286 307 353 11 13 4 357 1 357 346 340 333 333 332 324 318 312 306 304 304 304 304 303 305 308 312 317 328 345 1 14
337 335 330 329 327 314 305 298 290 296 284 257 252 241 245 259 275 292 301 298 288 288 286 284 288 294 297 291 284 280 277 277 279 282 285 286 287 290 294 298 301 300 298 292 283 277 275 287 313 325 324 319 330 347 3 11 11 11 9 2 0 2 353 345 343 338 333 324 317 317 313 309 309 309 308 308 309 312 317 326 344 6 23 37 48
339 337 336 335 335 331 320 307 295 295 295 288 282 272 251 234 268 288 288 284 290 297 291 283 284 289 296 298 291 278 268 268 272 279 287 294 300 304 306 305 305 300 296 289 284 288 341 34 41 37 29 23 22 20 14 9 8 7 5 2 1 357 350 346 346 340 331 322 325 340 337 331 328 325 325 328 332 341 358 18 34 47 59 68 73
346 344 344 342 340 340 335 318 304 299 297 296 294 288 278 254 264 282 284 270 271 282 288 283 277 276 281 290 296 290 282 281 286 291 297 302 307 314 319 321 320 317 319 320 329 13 42 51 54 50 44 35 26 20 18 17 14 9 3 1 359 354 350 348 344 339 336 344 45 57 46 40 39 40 43 47 52 58 64 68 73 80 82 80 80
357 354 351 347 346 347 346 336 317 308 309 306 301 289 286 284 285 299 309 300 274 277 298 305 289 284 287 294 298 297 300 305 307 309 309 311 318 331 345 353 356 360 1 2 14 37 48 52 53 53 52 45 32 24 26 24 18 10 6 3 360 356 354 353 353 3 46 79 83 80 79 79 77 75 74 74 75 75 77 79 81 82 81 81 84
4 0 356 351 353 356 355 356 344 325 321 318 317 306 303 308 314 320 323 328 326 324 340 339 327 330 329 324 323 317 319 320 312 309 312 322 346 9 20 22 22 22 21 21 31 43 47 47 53 59 59 51 39 31 30 28 22 15 12 11 10 12 18 32 60 83 88 88 86 86 86 85 84 83 82 81 81 80 80 80 80 79 79 80 82
10 5 0 359 5 13 12 13 14 3 340 332 339 336 328 329 332 338 345 357 10 20 19 16 13 8 1 353 344 340 345 343 333 341 3 19 30 34 30 27 30 32 30 30 38 50 50 47 54 62 61 51 39 34 35 36 32 28 31 38 47 58 70 83 90 90 88 87 87 87 86 86 85 85 84 84 83 83 82 81 81 80 80 79 78
18 15 13 15 23 27 26 27 31 38 47 41 16 1 2 6 4 1 4 10 23 29 30 30 24 16 15 14 13 21 32 30 32 44 46 43 42 36 31 32 33 34 35 31 37 57 57 55 56 57 57 49 38 42 53 53 50 54 63 71 79 84 89 92 91 90 89 88 87 87 87 86 85 85 84 84 84 83 82 82 81 80 79 77 73
24 25 26 29 34 35 34 39 46 56 65 60 44 31 28 28 24 19 21 24 27 23 20 26 31 42 51 50 49 53 60 57 53 53 48 43 42 35 36 39 30 30 37 32 41 63 65 65 60 52 56 55 51 65 73 73 74 78 82 87 90 92 93 93 92 91 90 89 89 88 87 87 86 85 84 84 83 82 82 81 80 79 77 74 71
27 31 33 38 41 41 39 44 53 60 63 61 57 54 51 43 36 35 33 25 18 13 25 50 65 71 69 64 60 62 69 66 56 51 46 45 47 43 41 38 22 25 32 30 50 70 69 70 68 64 70 72 77 85 90 89 88 88 90 92 94 95 96 95 94 93 92 91 90 88 87 87 86 85 84 83 82 81 80 79 78 77 75 73 70
30 34 38 44 47 46 45 48 56 61 62 62 60 59 57 47 41 40 33 22 26 40 59 72 76 75 71 66 66 69 73 69 59 58 58 53 49 40 31 29 20 21 29 38 59 70 68 73 80 83 86 87 92 96 96 94 93 93 95 97 98 98 98 96 94 92 91 90 88 88 86 85 84 83 82 81 81 80 79 78 77 76 74 72 70
32 36 41 48 51 52 52 54 58 62 64 64 60 55 49 43 45 50 47 48 59 65 71 75 76 76 74 72 74 75 76 72 65 61 55 42 35 25 13 18 24 26 42 59 70 74 74 81 87 91 94 97 99 98 97 96 97 99 101 101 100 98 96 93 91 90 88 88 86 86 85 84 83 83 82 82 81 81 79 78 77 76 74 73 71
33 37 42 48 55 59 60 62 63 65 65 62 57 53 50 55 64 67 66 67 68 68 71 74 75 78 79 78 75 71 70 67 54 40 27 14 10 7 4 18 41 53 67 77 83 86 87 90 93 97 100 100 99 98 99 101 102 102 102 100 98 96 93 92 90 89 88 86 86 85 85 84 84 83 83 82 82 81 80 78 77 76 74 73 72
33 37 42 48 57 63 66 69 70 68 66 61 59 60 65 70 73 73 71 69 68 66 67 71 71 73 79 78 67 56 56 50 36 22 13 6 2 13 26 54 76 82 86 90 92 96 98 99 101 102 102 101 101 101 102 102 102 101 100 98 97 95 93 92 91 90 89 88 87 86 86 85 84 83 82 82 81 80 79 78 76 75 74 72 71
34 38 43 49 57 65 70 72 73 69 65 63 65 69 72 75 75 73 71 68 67 66 66 69 70 72 70 63 55 46 41 34 24 13 15 28 48 65 75 89 96 96 96 97 99 103 105 105 106 105 104 104 104 103 102 101 101 100 100 98 97 96 95 94 93 91 90 89 88 86 85 84 83 82 81 80 79 78 77 76 74 73 72 70 69
36 40 44 50 58 66 72 73 73 69 65 66 70 73 76 77 74 70 68 67 67 68 69 70 70 68 61 53 44 37 30 24 16 16 46 71 87 93 95 100 101 102 102 103 105 109 109 109 108 107 106 106 105 103 102 102 102 101 100 99 97 96 95 94 93 92 91 89 88 86 85 83 82 81 80 80 79 77 76 74 73 71 70 68 67
37 43 46 51 59 68 73 74 73 70 67 69 73 76 78 76 70 66 65 65 67 69 70 70 67 62 56 50 40 35 36 34 39 60 78 89 98 102 102 104 106 108 108 108 111 112 112 111 111 110 108 107 106 104 104 104 103 102 99 97 95 93 92 92 92 91 90 89 87 86 84 83 82 81 80 79 78 77 76 74 73 71 70 68 67
37 43 48 53 60 70 77 78 75 70 67 72 78 79 79 75 68 64 63 64 68 69 69 69 67 63 60 55 48 47 49 55 69 81 90 98 105 108 106 106 109 110 110 111 113 114 114 114 114 113 110 109 107 106 105 103 101 99 97 95 92 90 89 89 89 89 88 87 86 84 83 82 80 79 78 77 76 75 74 73 72 71 70 69 67
37 42 48 54 62 71 81 84 82 75 72 76 81 80 78 76 71 66 64 65 68 68 68 69 69 68 66 65 61 58 59 71 81 86 95 104 108 110 110 111 111 110 110 111 113 115 116 116 116 114 111 110 107 105 103 101 99 97 95 93 90 89 88 87 87 87 86 84 83 82 81 80 78 77 76 75 74 73 72 71 70 69 69 68 68
37 41 48 55 63 72 83 89 90 85 80 80 82 80 78 77 74 71 70 70 70 68 69 72 74 74 75 73 69 66 71 83 91 94 101 107 110 112 114 116 115 111 111 113 114 116 116 116 116 114 112 110 106 103 101 99 98 97 95 92 91 89 88 86 85 84 83 81 80 79 78 77 76 75 74 74 73 72 72 71 70 69 68 68 67
39 41 48 56 65 73 80 87 92 91 88 87 85 82 79 77 76 76 78 77 75 73 75 79 82 82 82 79 76 78 86 95 100 103 104 105 109 114 116 121 122 117 114 115 116 116 116 115 114 113 112 109 105 102 100 98 96 96 95 93 92 89 86 84 82 80 79 78 77 77 76 76 76 75 75 74 73 73 72 72 72 71 70 69 68
41 42 48 55 64 73 79 83 88 91 93 93 92 89 84 82 82 83 83 81 80 80 84 89 92 90 89 86 84 87 94 101 105 108 107 104 106 112 116 120 122 120 117 116 116 116 115 114 113 113 111 108 105 103 102 100 97 95 93 91 88 86 83 81 80 79 78 77 76 75 75 76 76 75 74 74 74 73 73 74 75 74 72 71 70
43 45 48 54 62 71 78 82 86 90 94 96 97 95 90 88 89 89 87 86 88 90 93 99 100 97 94 91 90 91 95 101 107 109 109 108 108 112 115 117 118 119 117 116 115 115 114 114 114 113 110 108 105 103 102 100 97 94 90 87 85 84 82 81 80 79 78 76 75 74 74 75 74 74 73 73 74 74 74 75 75 74 73 73 72
44 48 50 54 61 68 77 83 87 91 95 99 100 99 97 95 94 94 92 92 96 98 100 104 104 101 98 95 92 93 96 100 106 107 107 109 109 110 113 114 115 117 117 116 115 114 114 115 115 113 110 108 105 102 100 98 95 92 89 85 83 83 83 82 80 78 77 75 74 73 73 73 72 72 72 72 73 73 73 73 73 73 73 73 73
45 51 54 57 63 68 76 83 90 95 98 101 104 105 104 101 99 99 99 98 103 106 106 104 104 102 101 98 93 93 96 99 103 105 106 106 106 107 110 112 113 115 116 114 113 113 114 115 115 113 110 106 103 101 99 97 95 92 89 86 84 84 83 81 78 76 75 73 73 72 71 71 71 72 72 72 72 73 73 73 72 72 72 72 73
45 53 57 60 66 71 78 84 91 97 103 106 108 109 110 108 105 106 105 104 107 112 111 108 107 104 102 98 93 93 96 100 103 104 105 105 105 106 108 110 112 114 114 113 112 113 115 115 114 112 107 102 101 100 99 97 95 92 89 87 86 85 83 80 77 75 73 72 71 70 70 71 72 72 72 71 72 72 73 73 73 72 72 72 73
44 53 59 62 67 74 81 88 94 100 106 111 113 112 114 114 112 110 110 108 107 110 112 112 111 108 103 98 95 96 98 101 103 104 105 106 106 106 108 109 111 113 113 112 113 114 114 114 112 109 105 102 101 100 98 96 94 92 91 90 88 86 83 80 78 75 73 71 70 69 70 71 71 71 71 71 71 72 73 73 74 73 73 74 74
45 52 60 63 68 75 83 91 99 105 108 112 116 117 116 119 118 113 111 110 110 110 112 114 111 107 102 99 99 100 100 102 105 105 106 105 105 106 108 109 110 110 111 111 111 112 112 111 109 107 105 103 101 99 97 96 95 94 92 90 88 85 82 80 78 74 72 70 69 69 70 70 70 71 71 72 73 74 75 75 75 74 74 75 76
47 51 60 65 68 75 84 91 100 108 111 112 117 119 116 119 123 120 114 114 114 112 113 113 110 106 103 101 103 103 103 105 107 106 106 105 105 107 108 107 107 108 108 109 110 110 109 108 106 105 104 101 98 96 94 94 93 92 91 89 87 85 83 82 78 73 70 67 68 71 71 71 71 72 73 74 75 76 76 76 76 75 75 76 77
50 51 59 67 70 74 82 90 98 106 112 113 118 121 117 115 120 122 119 118 118 116 115 112 110 108 106 104 106 107 106 107 109 107 106 105 106 110 109 106 108 109 108 109 110 109 107 105 104 103 101 99 97 95 93 92 92 90 89 87 85 84 83 81 78 75 72 69 69 71 72 72 73 74 75 75 75 75 76 75 75 75 75 76 79
56 54 59 67 73 76 81 90 96 101 110 114 118 124 122 116 117 120 120 118 118 117 116 114 112 111 110 110 110 110 110 110 112 109 104 103 107 110 111 109 111 112 110 110 111 109 106 104 103 102 100 99 97 95 94 94 93 90 88 86 84 83 81 77 75 74 74 73 72 72 73 74 74 74 74 75 76 76 75 74 73 73 74 77 83
Height
10961 10962 10963 10964 10964 10964 10965 10965 10965 10965 10965 10965 10966 10966 10966 10967 10967 10968 10968 10967 10967 10967 10967 10967 10968 10969 10970 10971 10971 10971 10971 10971 10971 10971 10971 10971 10971 10970 10968 10966 10966 10967 10968 10968 10968 10968 10967 10965 10964 10964 10963 10963 10963 10961 10960 10959 10960 10960 10959 10958 10957 10956 10955 10954 10952 10949 10944 10940 10938 10937 10937 10938 10937 10937 10935 10934 10933 10932 10931 10929 10927 10925 10924 10923 10922
10960 10961 10962 10963 10963 10963 10963 10964 10964 10964 10964 10964 10964 10965 10965 10966 10966 10966 10967 10966 10966 10966 10966 10966 10966 10967 10968 10969 10969 10969 10970 10970 10969 10970 10970 10970 10970 10969 10967 10965 10964 10965 10966 10966 10966 10966 10965 10963 10962 10961 10961 10962 10962 10961 10960 10959 10959 10959 10958 10957 10956 10955 10954 10952 10951 10949 10945 10942 10939 10937 10935 10934 10933 10932 10932 10931 10930 10930 10929 10928 10926 10924 10922 10921 10920
10959 10960 10961 10962 10962 10962 10962 10963 10963 10963 10963 10963 10964 10964 10965 10965 10966 10966 10966 10965 10965 10965 10964 10965 10965 10966 10966 10967 10968 10968 10968 10968 10968 10968 10969 10969 10969 10968 10967 10965 10963 10962 10963 10963 10964 10964 10963 10962 10960 10959 10959 10960 10961 10961 10960 10959 10958 10957 10956 10955 10955 10954 10953 10951 10950 10948 10945 10943 10940 10938 10936 10934 10930 10928 10927 10926 10926 10926 10926 10924 10923 10921 10920 10919 10918
10959 10960 10960 10961 10961 10961 10962 10962 10962 10963 10963 10963 10963 10964 10964 10965 10965 10965 10965 10964 10964 10963 10963 10963 10964 10964 10964 10965 10966 10967 10967 10967 10967 10967 10967 10968 10968 10967 10966 10964 10962 10960 10960 10960 10961 10962 10962 10961 10959 10958 10958 10959 10959 10959 10959 10959 10957 10955 10954 10953 10953 10952 10951 10950 10948 10946 10944 10942 10940 10939 10937 10935 10932 10928 10926 10924 10922 10922 10921 10920 10919 10918 10917 10916 10916
10958 10959 10959 10960 10960 10960 10961 10961 10962 10962 10962 10962 10962 10963 10963 10963 10964 10964 10964 10963 10963 10963 10962 10962 10962 10962 10963 10963 10965 10966 10966 10965 10965 10966 10966 10967 10966 10966 10965 10963 10961 10959 10958 10957 10958 10959 10960 10960 10959 10958 10957 10958 10958 10958 10958 10958 10957 10954 10952 10951 10951 10950 10949 10948 10946 10945 10943 10941 10940 10938 10936 10934 10933 10930 10928 10925 10923 10922 10920 10919 10917 10916 10915 10915 10915
10957 10958 10958 10958 10959 10959 10960 10960 10960 10961 10961 10961 10961 10962 10962 10962 10962 10962 10963 10963 10962 10962 10961 10960 10960 10961 10961 10962 10963 10964 10964 10964 10965 10965 10965 10965 10965 10965 10964 10963 10960 10958 10956 10955 10955 10956 10957 10958 10957 10957 10956 10956 10957 10957 10957 10957 10956 10953 10951 10950 10949 10948 10947 10946 10944 10943 10941 10940 10938 10936 10934 10933 10931 10930 10928 10927 10924 10922 10921 10919 10918 10916 10915 10914 10913
10956 10957 10957 10957 10958 10958 10958 10959 10959 10959 10959 10960 10960 10960 10961 10961 10961 10961 10961 10961 10961 10961 10960 10960 10959 10959 10959 10960 10961 10962 10963 10964 10964 10964 10964 10964 10964 10964 10963 10962 10961 10958 10956 10954 10953 10953 10954 10955 10955 10955 10955 10955 10955 10955 10954 10955 10954 10952 10950 10948 10947 10946 10944 10942 10941 10940 10938 10937 10935 10934 10932 10931 10929 10929 10927 10926 10924 10922 10920 10919 10918 10916 10915 10914 10912
10955 10956 10956 10956 10957 10957 10957 10957 10957 10958 10958 10958 10959 10959 10960 10960 10960 10960 10960 10960 10960 10960 10959 10959 10958 10957 10957 10958 10960 10961 10962 10963 10963 10963 10963 10963 10963 10963 10963 10962 10961 10959 10956 10954 10952 10951 10952 10952 10953 10953 10953 10953 10952 10952 10952 10952 10951 10950 10948 10947 10945 10944 10942 10939 10938 10937 10935 10934 10932 10931 10930 10929 10928 10927 10925 10924 10922 10920 10919 10918 10917 10916 10914 10913 10911
10954 10955 10955 10955 10955 10956 10956 10956 10956 10957 10957 10957 10958 10958 10958 10958 10958 10958 10959 10959 10959 10958 10958 10957 10957 10956 10956 10956 10958 10959 10960 10961 10962 10962 10962 10962 10962 10962 10961 10961 10960 10959 10956 10954 10951 10950 10950 10951 10951 10951 10951 10951 10950 10949 10948 10948 10948 10948 10946 10944 10943 10941 10939 10937 10935 10933 10932 10930 10929 10929 10928 10927 10926 10925 10923 10921 10919 10918 10917 10916 10915 10914 10912 10911 10909
10954 10954 10954 10954 10954 10955 10955 10955 10955 10955 10955 10956 10956 10956 10956 10956 10956 10957 10957 10958 10958 10957 10957 10956 10956 10955 10955 10956 10957 10958 10959 10960 10960 10960 10960 10961 10960 10960 10960 10959 10959 10958 10956 10954 10952 10950 10949 10949 10949 10950 10950 10949 10947 10946 10945 10945 10944 10944 10943 10942 10940 10938 10936 10934 10932 10930 10928 10927 10926 10926 10925 10925 10923 10922 10920 10918 10916 10915 10915 10914 10913 10911 10910 10909 10907
10953 10954 10954 10954 10954 10954 10954 10954 10954 10954 10954 10954 10954 10954 10954 10954 10954 10955 10956 10957 10956 10956 10956 10955 10955 10955 10954 10955 10956 10956 10957 10958 10958 10959 10959 10959 10959 10958 10958 10958 10957 10957 10956 10954 10952 10950 10949 10948 10948 10948 10948 10947 10945 10944 10943 10942 10942 10941 10940 10939 10937 10934 10932 10930 10928 10927 10925 10925 10924 10924 10923 10921 10920 10918 10917 10915 10914 10913 10912 10911 10910 10909 10908 10907 10906
10952 10952 10953 10953 10952 10952 10953 10953 10953 10953 10953 10952 10952 10953 10953 10952 10952 10953 10954 10955 10955 10955 10955 10954 10955 10954 10954 10954 10954 10955 10955 10956 10957 10958 10958 10958 10958 10957 10957 10956 10956 10956 10955 10954 10952 10950 10949 10948 10947 10946 10946 10945 10944 10943 10942 10941 10940 10939 10937 10936 10934 10932 10929 10927 10925 10923 10922 10922 10921 10921 10919 10918 10917 10916 10914 10913 10912 10911 10910 10909 10908 10907 10906 10905 10904
10951 10951 10951 10951 10951 10951 10951 10951 10952 10952 10952 10951 10951 10951 10951 10951 10950 10951 10952 10953 10953 10953 10953 10953 10953 10953 10952 10952 10952 10953 10955 10955 10955 10956 10957 10957 10956 10956 10956 10955 10955 10955 10954 10953 10952 10950 10948 10947 10946 10945 10945 10944 10944 10943 10942 10940 10938 10936 10935 10934 10932 10930 10927 10924 10922 10920 10919 10919 10918 10917 10916 10915 10914 10913 10911 10910 10909 10908 10907 10906 10906 10905 10904 10903 10902
10949 10949 10949 10950 10950 10950 10950 10950 10950 10950 10950 10951 10950 10951 10951 10950 10950 10950 10950 10951 10951 10951 10951 10952 10952 10951 10951 10951 10951 10952 10953 10953 10954 10955 10955 10955 10955 10955 10955 10954 10954 10954 10953 10952 10951 10949 10947 10945 10944 10944 10944 10944 10944 10943 10941 10939 10937 10934 10933 10931 10930 10928 10926 10923 10920 10918 10917 10916 10915 10915 10914 10913 10912 10910 10909 10908 10907 10906 10905 10904 10903 10903 10902 10901 10899
10948 10948 10948 10948 10948 10948 10948 10948 10949 10949 10949 10950 10950 10950 10950 10950 10949 10949 10949 10949 10949 10949 10950 10950 10950 10950 10950 10950 10950 10951 10952 10952 10953 10953 10953 10954 10954 10954 10953 10953 10953 10952 10951 10950 10949 10948 10946 10944 10943 10942 10942 10942 10942 10941 10939 10937 10935 10932 10930 10929 10927 10926 10924 10921 10919 10917 10916 10915 10914 10913 10912 10911 10909 10908 10907 10906 10905 10904 10903 10902 10902 10901 10900 10899 10898
10947 10947 10947 10947 10947 10947 10947 10947 10948 10948 10948 10948 10948 10949 10949 10949 10949 10949 10949 10949 10948 10948 10949 10949 10949 10949 10949 10949 10950 10950 10951 10951 10951 10952 10952 10952 10952 10952 10952 10952 10951 10950 10949 10949 10948 10947 10946 10944 10942 10941 10941 10940 10940 10938 10936 10935 10933 10930 10928 10926 10925 10923 10921 10919 10917 10916 10915 10914 10912 10911 10910 10909 10908 10906 10905 10904 10903 10902 10902 10901 10900 10900 10899 10898 10897
10947 10947 10946 10946 10946 10946 10946 10946 10947 10947 10947 10947 10947 10947 10948 10948 10948 10949 10948 10948 10948 10948 10948 10948 10949 10949 10949 10949 10950 10950 10950 10950 10950 10950 10950 10951 10951 10951 10951 10950 10949 10948 10948 10947 10946 10945 10944 10942 10941 10940 10939 10939 10937 10936 10934 10933 10931 10929 10927 10925 10923 10920 10919 10917 10916 10915 10914 10913 10911 10910 10909 10908 10907 10905 10904 10903 10902 10901 10901 10900 10899 10899 10898 10897 10897
10947 10946 10946 10945 10945 10945 10945 10946 10946 10946 10946 10946 10946 10946 10947 10947 10948 10948 10948 10948 10948 10948 10948 10948 10948 10948 10949 10949 10949 10949 10949 10949 10949 10949 10949 10949 10949 10949 10949 10948 10947 10946 10945 10944 10944 10943 10942 10941 10939 10938 10937 10936 10935 10933 10932 10931 10929 10927 10925 10923 10921 10919 10918 10917 10916 10914 10913 10912 10911 10909 10908 10907 10906 10905 10903 10902 10901 10900 10900 10899 10898 10897 10897 10896 10895
10946 10946 10945 10945 10944 10944 10945 10945 10945 10945 10945 10945 10946 10946 10946 10947 10947 10947 10948 10948 10948 10948 10947 10947 10948 10948 10948 10948 10948 10948 10948 10948 10948 10947 10947 10947 10947 10947 10946 10946 10945 10944 10943 10942 10941 10940 10940 10939 10937 10936 10935 10934 10932 10931 10930 10929 10927 10926 10924 10922 10920 10919 10918 10916 10915 10914 10912 10911 10910 10909 10907 10906 10905 10904 10903 10901 10900 10899 10898 10898 10897 10896 10895 10895 10894
10946 10945 10944 10944 10944 10944 10944 10944 10945 10945 10944 10945 10945 10946 10946 10946 10946 10947 10947 10947 10947 10948 10947 10947 10947 10947 10947 10947 10947 10947 10947 10947 10946 10946 10946 10946 10946 10945 10944 10944 10943 10942 10941 10940 10939 10938 10937 10936 10935 10934 10933 10931 10930 10929 10928 10927 10926 10924 10923 10921 10920 10919 10918 10916 10915 10913 10912 10910 10909 10908 10906 10905 10904 10903 10901 10900 10899 10898 10897 10896 10895 10894 10894 10894 10893
10945 10944 10944 10943 10943 10942 10943 10943 10943 10943 10943 10944 10944 10945 10945 10945 10946 10946 10947 10947 10947 10947 10947 10947 10947 10947 10947 10946 10946 10946 10946 10945 10945 10945 10945 10945 10944 10943 10943 10942 10941 10940 10939 10938 10937 10936 10935 10934 10933 10932 10931 10930 10929 10928 10927 10926 10925 10923 10922 10921 10920 10919 10918 10916 10915 10913 10911 10910 10908 10907 10905 10904 10903 10902 10900 10899 10898 10897 10895 10895 10894 10894 10893 10893 10893
10944 10943 10943 10942 10942 10941 10942 10942 10942 10942 10942 10942 10943 10943 10944 10945 10945 10945 10946 10946 10947 10947 10947 10947 10947 10946 10946 10946 10945 10945 10945 10944 10944 10944 10943 10943 10943 10942 10941 10940 10939 10938 10937 10936 10935 10934 10934 10933 10932 10932 10931 10930 10929 10928 10927 10925 10924 10923 10922 10921 10920 10919 10917 10916 10914 10912 10910 10909 10907 10906 10904 10903 10902 10901 10899 10898 10896 10895 10895 10894 10894 10894 10894 10893 10893
10944 10943 10942 10941 10941 10941 10941 10941 10941 10941 10941 10941 10941 10942 10942 10943 10944 10944 10945 10945 10946 10946 10946 10946 10946 10945 10945 10945 10944 10944 10943 10943 10943 10942 10942 10942 10941 10940 10939 10939 10938 10937 10936 10935 10934 10933 10933 10932 10932 10932 10931 10931 10929 10928 10926 10925 10924 10923 10922 10921 10920 10918 10917 10915 10913 10912 10910 10909 10907 10905 10904 10903 10901 10900 10899 10897 10896 10895 10895 10894 10894 10894 10894 10894 10895
10944 10943 10942 10941 10940 10940 10940 10940 10940 10940 10940 10941 10941 10941 10941 10942 10942 10943 10943 10944 10945 10946 10946 10945 10945 10945 10944 10944 10943 10943 10942 10942 10941 10941 10940 10940 10939 10939 10938 10938 10937 10936 10935 10934 10933 10933 10932 10932 10932 10932 10931 10930 10929 10928 10926 10925 10924 10923 10922 10921 10920 10918 10916 10914 10913 10911 10910 10909 10907 10905 10904 10903 10901 10900 10899 10898 10897 10896 10895 10895 10895 10895 10896 10896 10896
10943 10942 10942 10941 10941 10940 10940 10940 10940 10940 10940 10940 10940 10940 10940 10941 10941 10941 10942 10943 10944 10944 10945 10944 10944 10944 10944 10943 10942 10941 10941 10940 10940 10940 10939 10938 10938 10938 10938 10937 10937 10936 10935 10934 10933 10933 10933 10932 10932 10932 10931 10930 10929 10928 10927 10926 10925 10924 10923 10921 10920 10918 10916 10914 10912 10911 10911 10909 10907 10905 10905 10904 10903 10901 10900 10899 10898 10897 10897 10897 10897 10897 10897 10898 10898
10943 10942 10942 10941 10940 10940 10940 10939 10939 10939 10940 10940 10940 10940 10940 10940 10940 10940 10941 10942 10942 10943 10943 10943 10943 10942 10942 10942 10941 10941 10940 10939 10939 10939 10939 10938 10938 10938 10938 10937 10936 10936 10935 10934 10934 10933 10933 10933 10932 10932 10931 10930 10929 10928 10927 10926 10925 10924 10923 10921 10920 10918 10916 10914 10914 10913 10912 10910 10908 10907 10906 10905 10904 10903 10902 10901 10900 10900 10899 10899 10899 10899 10900 10900 10900
10943 10942 10941 10940 10940 10939 10939 10939 10939 10939 10940 10940 10940 10940 10940 10940 10940 10940 10940 10941 10941 10942 10942 10942 10942 10941 10941 10941 10941 10940 10939 10939 10939 10939 10939 10938 10938 10938 10937 10937 10936 10936 10935 10935 10934 10933 10933 10933 10932 10931 10931 10930 10929 10929 10928 10927 10926 10925 10923 10922 10921 10919 10917 10917 10916 10915 10914 10912 10910 10909 10908 10907 10906 10905 10905 10904 10903 10902 10902 10902 10902 10902 10902 10902 10902
10944 10942 10941 10940 10939 10939 10939 10939 10939 10939 10939 10940 10940 10940 10940 10940 10940 10940 10940 10940 10941 10941 10942 10942 10941 10941 10940 10940 10940 10940 10939 10939 10939 10939 10939 10939 10938 10938 10937 10937 10936 10935 10935 10934 10934 10933 10932 10932 10932 10931 10930 10930 10930 10929 10928 10927 10926 10926 10925 10924 10922 10921 10920 10920 10919 10917 10916 10914 10913 10912 10911 10910 10909 10908 10907 10906 10906 10905 10905 10904 10904 10904 10904 10904 10904
10943 10942 10941 10940 10939 10939 10939 10939 10939 10939 10940 10940 10940 10940 10940 10940 10940 10939 10939 10940 10941 10941 10942 10941 10941 10940 10940 10940 10940 10940 10940 10940 10940 10940 10940 10939 10939 10938 10938 10937 10936 10935 10935 10934 10934 10933 10932 10932 10932 10931 10931 10930 10930 10930 10929 10928 10927 10927 10926 10925 10925 10924 10923 10922 10921 10919 10918 10916 10915 10914 10913 10912 10911 10910 10910 10909 10908 10908 10907 10907 10907 10906 10906 10906 10905
10943 10942 10941 10941 10940 10939 10939 10939 10939 10940 10940 10940 10941 10941 10940 10940 10940 10940 10940 10940 10941 10941 10941 10941 10940 10940 10940 10940 10940 10941 10941 10941 10941 10941 10940 10940 10939 10939 10938 10937 10936 10935 10935 10935 10934 10933 10932 10932 10932 10931 10931 10931 10931 10931 10930 10929 10929 10928 10928 10928 10927 10927 10926 10925 10923 10921 10920 10919 10918 10917 10916 10915 10914 10913 10912 10912 10911 10911 10910 10910 10909 10909 10908 10908 10907
10944 10943 10942 10941 10941 10940 10939 10939 10939 10940 10940 10941 10941 10941 10941 10941 10941 10940 10940 10941 10941 10940 10940 10940 10940 10940 10940 10940 10941 10942 10941 10941 10941 10941 10941 10940 10940 10939 10938 10937 10936 10936 10935 10936 10935 10934 10933 10933 10932 10932 10932 10932 10933 10933 10932 10931 10931 10930 10930 10930 10930 10929 10928 10927 10926 10924 10923 10922 10921 10920 10919 10918 10917 10916 10915 10915 10915 10914 10914 10913 10912 10911 10910 10910 10909
10945 10944 10943 10942 10942 10941 10940 10940 10940 10940 10941 10941 10942 10942 10942 10942 10942 10941 10941 10941 10941 10940 10940 10940 10941 10941 10941 10941 10942 10943 10942 10941 10942 10941 10941 10941 10940 10939 10938 10937 10937 10936 10936 10936 10936 10935 10934 10934 10933 10933 10933 10934 10934 10935 10934 10933 10933 10932 10932 10932 10932 10932 10931 10930 10929 10927 10926 10925 10924 10923 10922 10921 10920 10920 10919 10918 10918 10917 10917 10916 10915 10914 10913 10912 10911
10946 10945 10944 10943 10943 10942 10942 10941 10941 10941 10942 10942 10943 10943 10943 10943 10942 10942 10942 10941 10941 10941 10941 10941 10942 10942 10942 10943 10943 10943 10942 10942 10942 10941 10941 10940 10940 10939 10938 10938 10937 10937 10936 10936 10936 10935 10935 10935 10935 10935 10936 10936 10937 10937 10937 10936 10935 10935 10935 10935 10935 10935 10934 10933 10932 10931 10930 10929 10928 10927 10926 10925 10924 10923 10923 10922 10921 10921 10920 10919 10918 10917 10916 10915 10914
10948 10946 10945 10944 10944 10944 10944 10943 10943 10943 10943 10943 10944 10944 10944 10944 10943 10943 10943 10942 10942 10942 10942 10943 10943 10943 10943 10944 10944 10943 10942 10942 10942 10941 10941 10941 10940 10940 10939 10938 10938 10937 10937 10937 10937 10936 10936 10936 10937 10938 10939 10939 10939 10939 10939 10939 10939 10939 10939 10939 10938 10938 10937 10936 10935 10934 10933 10932 10931 10930 10929 10928 10928 10927 10926 10926 10925 10924 10923 10922 10921 10920 10920 10919 10917
10950 10948 10946 10945 10944 10944 10945 10945 10945 10945 10945 10945 10945 10945 10945 10945 10944 10944 10944 10944 10943 10944 10944 10944 10944 10944 10944 10944 10944 10943 10943 10942 10942 10942 10942 10941 10941 10940 10940 10939 10939 10938 10939 10939 10939 10938 10938 10939 10940 10941 10941 10941 10942 10942 10942 10942 10943 10943 10943 10942 10942 10941 10940 10939 10938 10937 10937 10936 10935 10934 10933 10932 10931 10931 10930 10930 10929 10928 10927 10926 10925 10924 10923 10922 10921
10953 10950 10948 10947 10946 10945 10946 10946 10946 10946 10946 10946 10946 10946 10946 10946 10946 10946 10946 10946 10946 10946 10946 10946 10946 10945 10945 10945 10944 10943 10943 10943 10943 10943 10942 10942 10941 10941 10941 10941 10940 10940 10940 10941 10940 10941 10941 10941 10942 10944 10944 10945 10945 10945 10945 10946 10946 10946 10946 10946 10945 10944 10943 10942 10941 10941 10940 10939 10938 10937 10937 10936 10935 10935 10934 10934 10933 10932 10931 10930 10929 10928 10927 10926 10925
10955 10953 10951 10949 10948 10947 10946 10947 10947 10947 10947 10947 10947 10947 10947 10947 10947 10947 10948 10948 10948 10948 10948 10947 10946 10946 10946 10945 10944 10944 10943 10943 10943 10943 10942 10942 10942 10942 10942 10942 10942 10942 10943 10943 10942 10943 10944 10944 10945 10946 10948 10949 10949 10948 10948 10949 10949 10949 10949 10949 10949 10948 10947 10946 10945 10944 10943 10942 10941 10941 10940 10939 10939 10938 10938 10937 10937 10936 10935 10934 10933 10932 10931 10930 10929
10957 10955 10954 10952 10950 10949 10948 10948 10948 10948 10948 10948 10948 10948 10948 10949 10949 10949 10949 10949 10949 10949 10948 10948 10947 10947 10947 10946 10945 10945 10944 10944 10944 10943 10942 10942 10942 10943 10943 10943 10944 10944 10945 10945 10945 10945 10946 10947 10947 10949 10951 10952 10952 10951 10952 10952 10953 10953 10952 10953 10952 10952 10951 10950 10949 10948 10947 10946 10945 10944 10943 10943 10942 10942 10941 10941 10940 10939 10938 10937 10937 10936 10935 10933 10932
10959 10957 10956 10954 10952 10951 10950 10949 10949 10949 10949 10949 10949 10950 10950 10950 10950 10951 10950 10950 10950 10950 10949 10948 10948 10948 10948 10947 10946 10946 10945 10945 10944 10944 10943 10943 10944 10944 10945 10946 10946 10947 10947 10948 10948 10948 10948 10949 10950 10951 10953 10955 10955 10955 10955 10955 10956 10956 10955 10955 10955 10955 10954 10954 10952 10951 10950 10949 10948 10947 10947 10946 10946 10946 10945 10945 10944 10942 10941 10941 10941 10940 10939 10936 10934
10961 10959 10958 10956 10955 10954 10952 10952 10951 10951 10951 10951 10951 10951 10951 10952 10952 10952 10951 10951 10951 10950 10950 10950 10950 10950 10949 10949 10948 10948 10947 10947 10946 10945 10945 10945 10945 10946 10947 10948 10949 10950 10950 10950 10951 10951 10951 10951 10952 10954 10955 10957 10958 10958 10959 10959 10959 10959 10959 10958 10958 10958 10957 10957 10956 10954 10953 10953 10952 10951 10950 10949 10949 10949 10949 10948 10947 10946 10945 10944 10944 10943 10942 10940 10937
10963 10962 10960 10958 10957 10956 10955 10954 10953 10953 10953 10953 10953 10953 10953 10953 10953 10953 10953 10952 10952 10952 10952 10952 10952 10951 10951 10951 10950 10950 10949 10949 10948 10948 10947 10947 10948 10948 10949 10950 10951 10952 10952 10952 10953 10954 10954 10954 10955 10956 10958 10960 10961 10961 10962 10962 10962 10962 10962 10961 10961 10961 10960 10960 10959 10958 10957 10957 10956 10955 10954 10953 10952 10952 10952 10951 10950 10949 10948 10947 10947 10946 10945 10942 10940
10965 10963 10962 10960 10959 10958 10957 10956 10955 10955 10955 10954 10954 10954 10954 10954 10954 10954 10954 10954 10953 10953 10954 10954 10954 10954 10954 10953 10953 10952 10951 10951 10950 10950 10950 10950 10950 10950 10951 10952 10953 10954 10954 10955 10956 10957 10957 10957 10958 10959 10961 10962 10963 10964 10965 10965 10965 10965 10965 10965 10964 10964 10963 10963 10962 10961 10961 10960 10959 10959 10958 10957 10955 10955 10954 10953 10952 10952 10952 10951 10950 10949 10947 10944 10943
10966 10965 10963 10962 10961 10959 10959 10958 10958 10957 10956 10956 10956 10956 10956 10956 10956 10956 10956 10956 10955 10955 10956 10956 10956 10956 10956 10956 10955 10954 10954 10953 10953 10952 10952 10952 10952 10953 10953 10954 10955 10956 10957 10958 10958 10960 10960 10960 10961 10962 10964 10965 10966 10967 10968 10967 10967 10968 10968 10968 10967 10967 10967 10966 10965 10965 10964 10963 10963 10963 10962 10960 10958 10957 10956 10956 10955 10955 10956 10955 10953 10951 10949 10947 10946
10968 10966 10965 10964 10963 10961 10961 10960 10960 10959 10958 10958 10957 10957 10957 10957 10957 10957 10957 10958 10958 10958 10958 10958 10959 10959 10959 10958 10958 10957 10956 10955 10955 10955 10955 10955 10955 10955 10955 10956 10957 10958 10960 10961 10962 10963 10964 10964 10965 10966 10967 10968 10969 10970 10970 10970 10971 10971 10971 10971 10970 10970 10970 10969 10969 10968 10967 10966 10966 10966 10965 10963 10961 10960 10960 10960 10959 10959 10959 10958 10956 10954 10952 10951 10949
10970 10968 10967 10966 10965 10964 10963 10962 10961 10961 10960 10960 10959 10959 10959 10959 10959 10959 10960 10960 10960 10960 10960 10961 10961 10961 10961 10961 10960 10959 10958 10958 10958 10958 10958 10958 10958 10958 10959 10959 10960 10962 10963 10964 10965 10966 10967 10968 10969 10970 10971 10972 10973 10973 10974 10973 10974 10974 10974 10974 10974 10974 10973 10972 10972 10971 10971 10970 10970 10970 10969 10967 10965 10963 10963 10963 10963 10963 10962 10961 10960 10957 10956 10954 10953
10973 10971 10969 10968 10967 10966 10965 10964 10964 10963 10963 10962 10962 10962 10962 10962 10962 10962 10962 10962 10962 10963 10963 10964 10964 10963 10963 10963 10963 10962 10961 10961 10961 10961 10961 10961 10961 10962 10962 10963 10964 10966 10967 10968 10969 10970 10971 10972 10973 10974 10975 10976 10976 10977 10977 10977 10977 10977 10978 10978 10978 10977 10977 10976 10975 10975 10974 10974 10973 10973 10972 10971 10969 10968 10967 10967 10967 10967 10966 10965 10963 10960 10959 10958 10957
10974 10972 10971 10970 10969 10969 10968 10967 10966 10965 10965 10965 10964 10964 10964 10965 10965 10965 10965 10965 10965 10965 10965 10966 10966 10965 10965 10965 10965 10965 10964 10964 10964 10964 10964 10965 10965 10966 10967 10968 10969 10970 10971 10971 10973 10974 10975 10976 10977 10978 10979 10980 10980 10980 10980 10980 10980 10981 10981 10981 10981 10981 10980 10979 10979 10978 10978 10977 10976 10975 10975 10974 10972 10971 10970 10970 10971 10970 10969 10968 10966 10963 10962 10961 10960
10976 10974 10972 10971 10971 10970 10969 10969 10968 10968 10967 10967 10967 10966 10966 10967 10967 10967 10968 10968 10968 10968 10968 10968 10968 10968 10968 10968 10968 10968 10967 10967 10968 10968 10968 10968 10969 10970 10971 10972 10973 10973 10974 10975 10977 10978 10979 10980 10981 10982 10983 10983 10983 10983 10983 10984 10984 10984 10985 10985 10984 10984 10983 10982 10982 10981 10980 10980 10979 10978 10978 10977 10976 10974 10974 10974 10974 10973 10972 10971 10968 10966 10965 10964 10963
10977 10976 10974 10972 10972 10971 10971 10970 10970 10969 10969 10969 10969 10969 10968 10969 10969 10970 10970 10970 10970 10970 10970 10970 10970 10970 10970 10970 10970 10971 10971 10971 10971 10971 10972 10973 10973 10974 10975 10976 10977 10977 10978 10980 10981 10982 10983 10984 10985 10985 10986 10986 10986 10987 10987 10987 10987 10988 10988 10988 10987 10987 10986 10985 10985 10984 10983 10982 10982 10981 10981 10980 10979 10978 10978 10978 10978 10976 10975 10973 10971 10970 10968 10967 10966
10978 10977 10975 10973 10973 10972 10972 10972 10971 10971 10971 10971 10971 10971 10971 10971 10971 10972 10972 10972 10972 10973 10973 10973 10973 10973 10973 10973 10973 10974 10974 10974 10974 10975 10975 10976 10977 10978 10979 10979 10980 10981 10982 10983 10985 10986 10987 10987 10988 10988 10989 10989 10989 10990 10990 10991 10991 10991 10991 10991 10990 10989 10989 10988 10988 10987 10987 10986 10985 10984 10984 10983 10982 10981 10981 10981 10980 10978 10978 10976 10975 10973 10971 10970 10971
10979 10978 10977 10975 10974 10973 10973 10973 10973 10972 10972 10972 10972 10972 10973 10973 10973 10974 10974 10974 10974 10975 10975 10975 10975 10975 10976 10976 10976 10976 10977 10977 10977 10978 10979 10980 10981 10981 10982 10983 10984 10985 10986 10987 10988 10989 10990 10990 10991 10991 10992 10992 10993 10993 10994 10994 10994 10994 10994 10993 10993 10992 10992 10991 10991 10990 10990 10989 10988 10987 10986 10985 10985 10984 10984 10983 10982 10981 10981 10979 10978 10976 10974 10975 10976